Content
SEND FEEDBACK

Daily
Averages
Monthly
Summary
United States of America

ELGIN, TEXAS


Home > North America > United States > Texas
Elevation: 557 feet     Latitude: 30 21N     Longitude: 097 22W

WEATHER
 
SELECT A DAY
Number of Records: 118,372;   Date Range: 7/22/09 - 8/26/14
 
SHARE

PRINT THIS DATA

[ ← Previous Day ]
WEATHER ALMANAC - FEBRUARY 5, 2013
[ Next Day → ]
[ °C ]   °F
Weather ElementAverageHighLow
Temperature61.8 °F77 °F (3:15 pm)48.2 °F (7:35 am)
Dewpoint48.8 °F55.4 °F (1:55 am)44.6 °F (2:35 pm)
Humidity68.1 %100 % (1:15 am)32 % (3:15 pm)
Barometer29.93 in30.00 in (10:15 am)29.88 in (12:35 am)
Wind Speed4.2 mph9.2 mph (4:55 pm)
Weather ElementAverage
Visibility7.2 mi
Wind DirectionESE (106.6 °)

Weather ElementTotal
Precipitation---
Heating Degree Days2.4 (Base 65)
Growing Degree Days12.6 (Base 50)
Averaged from 67 records on February 5, 2013
WEATHER CONDITIONS BREAKOUT
WIND DIRECTION BREAKOUT
WEATHER BY HOUR - FEBRUARY 5, 2013
[ °C ]   °F
Local TimeTemperatureDewpointHumidityBarometerVisibilityWind DirectionWind SpeedGust SpeedPrecipitationEventsConditions
12:35 AM55.4 °F53.6 °F94 %29.88 in8.0 miSSW (200°)3.5 mphClear
12:55 AM55.4 °F53.6 °F94 %29.88 in8.0 miSSW (210°)4.6 mphClear
1:15 AM53.6 °F53.6 °F100 %29.88 in7.0 miSSW (210°)6.9 mphClear
1:35 AM55.4 °F53.6 °F94 %29.88 in7.0 miSW (220°)4.6 mphClear
1:55 AM55.4 °F55.4 °F100 %29.88 in8.0 miSSW (200°)3.5 mphClear
2:15 AM55.4 °F53.6 °F94 %29.88 in7.0 miSW (220°)4.6 mphClear
2:35 AM55.4 °F53.6 °F94 %29.88 in5.0 miSSW (210°)3.5 mphClear
2:55 AM53.6 °F53.6 °F100 %29.88 in4.0 miSW (230°)3.5 mphClear
3:15 AM53.6 °F53.6 °F100 %29.88 in2.0 miCalmClear
3:35 AM53.6 °F51.8 °F94 %29.88 in0.8 miWSW (250°)5.8 mphMist
3:55 AM51.8 °F51.8 °F100 %29.88 in1.2 miCalmClear
4:15 AM53.6 °F53.6 °F100 %29.88 in0.2 miSSE (160°)4.6 mphFogFog
4:35 AM53.6 °F51.8 °F94 %29.88 in0.2 miSouth (180°)3.5 mphFogFog
4:55 AM53.6 °F53.6 °F100 %29.88 in0.2 miCalmFogFog
5:15 AM51.8 °F51.8 °F100 %29.89 in0.2 miCalmFogFog
5:35 AM51.8 °F51.8 °F100 %29.89 in0.2 miCalmFogFog
5:55 AM50.0 °F50.0 °F100 %29.90 in0.2 miCalmFogFog
6:15 AM50.0 °F50.0 °F100 %29.90 in0.2 miSouth (190°)3.5 mphFogFog
6:35 AM50.0 °F50.0 °F100 %29.92 in0.2 miCalmFogFog
6:55 AM50.0 °F50.0 °F100 %29.92 in0.2 miCalmFogFog
7:15 AM50.0 °F50.0 °F100 %29.93 in0.2 miCalmFogFog
7:35 AM48.2 °F48.2 °F100 %29.94 in0.2 miCalmFogFog
7:55 AM48.2 °F48.2 °F100 %29.94 in0.2 miNNW (340°)3.5 mphFogFog
8:15 AM50.0 °F50.0 °F100 %29.95 in1.8 miCalmScattered Clouds
8:35 AM53.6 °F53.6 °F100 %29.96 in7.0 miNorth (10°)3.5 mphClear
8:55 AM53.6 °F53.6 °F100 %29.97 in10.0 miNorth (350°)6.9 mphClear
9:15 AM55.4 °F55.4 °F100 %29.98 in10.0 miNNW (340°)4.6 mphClear
10:15 AM62.6 °F46.4 °F55 %30.00 in10.0 miNNE (20°)5.8 mphClear
10:35 AM64.4 °F46.4 °F52 %30.00 in10.0 miNNE (20°)5.8 mphClear
10:55 AM64.4 °F48.2 °F56 %30.00 in10.0 miESE (110°)3.5 mphClear
11:15 AM66.2 °F48.2 °F52 %30.00 in10.0 miNorth (10°)3.5 mphClear
11:35 AM68.0 °F48.2 °F49 %29.99 in10.0 miNorth (360°)5.8 mphClear
11:55 AM68.0 °F48.2 °F49 %29.99 in10.0 miNorth (350°)3.5 mphClear
12:15 PM68.0 °F48.2 °F49 %29.98 in10.0 miNorth (360°)6.9 mphClear
12:35 PM69.8 °F48.2 °F46 %29.98 in10.0 miNorth (10°)4.6 mphClear
12:55 PM71.6 °F48.2 °F43 %29.97 in10.0 miNorth (350°)5.8 mphClear
1:15 PM73.4 °F46.4 °F38 %29.96 in10.0 miNorth (360°)5.8 mphClear
1:35 PM75.2 °F46.4 °F36 %29.95 in10.0 miNE (40°)4.6 mphClear
1:55 PM75.2 °F46.4 °F36 %29.94 in10.0 miNorth (10°)4.6 mphClear
2:15 PM75.2 °F46.4 °F36 %29.93 in10.0 miNorth (350°)6.9 mphClear
2:35 PM75.2 °F44.6 °F34 %29.92 in10.0 miNorth (10°)3.5 mphClear
2:55 PM75.2 °F46.4 °F36 %29.92 in10.0 miENE (70°)3.5 mphClear
3:15 PM77.0 °F44.6 °F32 %29.91 in10.0 miCalmClear
3:35 PM77.0 °F44.6 °F32 %29.90 in10.0 miNNE (20°)5.8 mphClear
3:55 PM77.0 °F44.6 °F32 %29.90 in5.0 miCalmHaze
4:15 PM75.2 °F46.4 °F36 %29.90 in10.0 miEast (90°)5.8 mphClear
4:35 PM75.2 °F48.2 °F38 %29.90 in10.0 miENE (60°)6.9 mphClear
4:55 PM75.2 °F48.2 °F38 %29.91 in10.0 miENE (70°)9.2 mphClear
5:15 PM73.4 °F48.2 °F41 %29.91 in10.0 miENE (70°)8.1 mphClear
5:35 PM73.4 °F46.4 °F38 %29.91 in10.0 miEast (90°)6.9 mphClear
5:55 PM71.6 °F46.4 °F41 %29.91 in10.0 miEast (90°)6.9 mphClear
6:15 PM69.8 °F46.4 °F43 %29.92 in10.0 miEast (80°)6.9 mphClear
6:35 PM66.2 °F44.6 °F46 %29.92 in10.0 miEast (80°)5.8 mphPartly Cloudy
6:55 PM66.2 °F44.6 °F46 %29.93 in10.0 miENE (70°)6.9 mphMostly Cloudy
7:15 PM64.4 °F44.6 °F49 %29.94 in10.0 miENE (60°)5.8 mphOvercast
8:15 PM62.6 °F44.6 °F52 %29.96 in10.0 miNNE (30°)5.8 mphClear
8:35 PM62.6 °F44.6 °F52 %29.96 in10.0 miNE (40°)6.9 mphClear
8:55 PM60.8 °F46.4 °F59 %29.97 in10.0 miNE (40°)6.9 mphClear
9:15 PM60.8 °F46.4 °F59 %29.97 in10.0 miNE (40°)6.9 mphClear
9:35 PM60.8 °F46.4 °F59 %29.98 in10.0 miNE (50°)4.6 mphPartly Cloudy
9:55 PM60.8 °F46.4 °F59 %29.98 in10.0 miNE (50°)4.6 mphMostly Cloudy
10:15 PM59.0 °F46.4 °F63 %29.98 in10.0 miNNE (30°)3.5 mphScattered Clouds
10:35 PM59.0 °F46.4 °F63 %29.98 in10.0 miNorth (10°)5.8 mphScattered Clouds
10:55 PM59.0 °F46.4 °F63 %29.98 in7.0 miNNE (20°)5.8 mphPartly Cloudy
11:15 PM59.0 °F46.4 °F63 %29.97 in10.0 miNNE (30°)5.8 mphClear
11:35 PM59.0 °F48.2 °F67 %29.98 in10.0 miNNE (30°)4.6 mphScattered Clouds
11:55 PM59.0 °F48.2 °F67 %29.98 in10.0 miNE (40°)3.5 mphOvercast
Hourly data recorded from KEDC, located miles away from Elgin, Texas







STORIES FROM OUR PARTNERS